EN

Hourly Weather Panteleevka

Today, 2 March, Tuesday

Time Temperature Precipitation Wind Pressure Humidity
00:00 0°C° 0 mm 1 mps 759 mmHg 74%
01:00 -3°C° 0 mm 2 mps 759 mmHg 76%
02:00 -3°C° 0 mm 2 mps 759 mmHg 78%
03:00 -4°C° 0 mm 3 mps 758 mmHg 78%
04:00 -4°C° 0 mm 3 mps 758 mmHg 80%
05:00 -4°C° 0 mm 4 mps 757 mmHg 81%
06:00 -4°C° 0 mm 4 mps 757 mmHg 82%
07:00 -4°C° 0 mm 5 mps 757 mmHg 79%
08:00 -3°C° 0 mm 6 mps 756 mmHg 77%
09:00 -2°C° 0 mm 7 mps 756 mmHg 74%
10:00 -2°C° 0 mm 7 mps 755 mmHg 72%
11:00 -1°C° 0 mm 8 mps 755 mmHg 69%
12:00 -1°C° 0 mm 8 mps 754 mmHg 67%
13:00 -1°C° 0 mm 8 mps 754 mmHg 68%
14:00 -1°C° 0 mm 8 mps 753 mmHg 69%
15:00 0°C° 0 mm 8 mps 752 mmHg 70%
16:00 -1°C° 0 mm 7 mps 752 mmHg 73%
17:00 -1°C° 0 mm 7 mps 751 mmHg 76%
18:00 -1°C° 0 mm 7 mps 750 mmHg 79%
19:00 -1°C° 0.3 mm 7 mps 750 mmHg 84%
20:00 -1°C° 0.3 mm 7 mps 749 mmHg 89%
21:00 -2°C° 0.3 mm 7 mps 749 mmHg 94%
22:00 -2°C° 0.5 mm 7 mps 748 mmHg 95%
23:00 -2°C° 0.5 mm 6 mps 748 mmHg 96%

Tomorrow, 3 March, Wednesday

Time Temperature Precipitation Wind Pressure Humidity
00:00 -3°C° 0.5 mm 6 mps 747 mmHg 97%
01:00 -3°C° 0.4 mm 6 mps 747 mmHg 97%
02:00 -2°C° 0.4 mm 6 mps 747 mmHg 97%
03:00 -1°C° 0.4 mm 5 mps 747 mmHg 97%
04:00 -2°C° 0.2 mm 6 mps 747 mmHg 94%
05:00 -3°C° 0.2 mm 6 mps 748 mmHg 92%
06:00 -3°C° 0.2 mm 6 mps 748 mmHg 90%
07:00 -3°C° 0 mm 6 mps 749 mmHg 86%
08:00 -3°C° 0 mm 6 mps 750 mmHg 83%
09:00 -3°C° 0 mm 6 mps 750 mmHg 80%
10:00 -2°C° 0 mm 6 mps 751 mmHg 79%
11:00 -2°C° 0 mm 6 mps 751 mmHg 79%
12:00 -2°C° 0 mm 6 mps 751 mmHg 78%
13:00 -2°C° 0.1 mm 7 mps 752 mmHg 74%
14:00 -2°C° 0.1 mm 7 mps 752 mmHg 70%
15:00 -2°C° 0.1 mm 7 mps 752 mmHg 66%
16:00 -3°C° 0 mm 6 mps 753 mmHg 67%
17:00 -2°C° 0 mm 5 mps 753 mmHg 68%
18:00 -4°C° 0 mm 5 mps 753 mmHg 69%
19:00 -4°C° 0 mm 4 mps 754 mmHg 71%
20:00 -4°C° 0 mm 4 mps 754 mmHg 74%
21:00 -4°C° 0 mm 3 mps 755 mmHg 76%
22:00 -4°C° 0 mm 3 mps 755 mmHg 78%
23:00 -4°C° 0 mm 3 mps 755 mmHg 79%

Day after tomorrow, 4 March, Thursday

Time Temperature Precipitation Wind Pressure Humidity
00:00 -4°C° 0 mm 3 mps 755 mmHg 81%
01:00 -4°C° 0 mm 4 mps 755 mmHg 82%
02:00 -4°C° 0 mm 4 mps 755 mmHg 83%
03:00 -4°C° 0 mm 4 mps 755 mmHg 84%
04:00 -5°C° 0 mm 5 mps 754 mmHg 84%
05:00 -5°C° 0 mm 5 mps 754 mmHg 85%
06:00 -5°C° 0 mm 5 mps 754 mmHg 86%
07:00 -4°C° 0 mm 6 mps 753 mmHg 82%
08:00 -3°C° 0 mm 6 mps 753 mmHg 78%
09:00 -2°C° 0 mm 7 mps 753 mmHg 75%
10:00 -1°C° 0 mm 7 mps 753 mmHg 69%
11:00 0°C° 0 mm 8 mps 752 mmHg 63%
12:00 +2°C° 0 mm 8 mps 752 mmHg 56%
13:00 +2°C° 0 mm 8 mps 751 mmHg 56%
14:00 +4°C° 0 mm 8 mps 751 mmHg 55%
15:00 +4°C° 0 mm 8 mps 750 mmHg 54%
16:00 +2°C° 0 mm 8 mps 749 mmHg 58%
17:00 +2°C° 0 mm 7 mps 749 mmHg 61%
18:00 +2°C° 0 mm 6 mps 748 mmHg 65%
19:00 +1°C° 0 mm 6 mps 748 mmHg 68%
20:00 0°C° 0 mm 7 mps 748 mmHg 71%
21:00 0°C° 0 mm 7 mps 748 mmHg 74%
22:00 0°C° 0 mm 7 mps 748 mmHg 77%
23:00 0°C° 0 mm 8 mps 747 mmHg 79%

5 March, Friday

Time Temperature Precipitation Wind Pressure Humidity
00:00 0°C° 0 mm 8 mps 747 mmHg 82%
01:00 0°C° 0 mm 8 mps 747 mmHg 83%
02:00 -1°C° 0 mm 8 mps 747 mmHg 84%
03:00 -1°C° 0 mm 8 mps 747 mmHg 85%
04:00 -1°C° 0 mm 8 mps 747 mmHg 85%
05:00 -1°C° 0 mm 8 mps 747 mmHg 86%
06:00 -1°C° 0 mm 8 mps 746 mmHg 87%
07:00 -1°C° 0 mm 7 mps 747 mmHg 88%
08:00 -1°C° 0 mm 7 mps 747 mmHg 89%
09:00 0°C° 0 mm 7 mps 747 mmHg 90%
10:00 0°C° 0 mm 7 mps 747 mmHg 88%
11:00 +2°C° 0 mm 7 mps 748 mmHg 86%
12:00 +2°C° 0 mm 6 mps 748 mmHg 84%
13:00 +3°C° 0 mm 6 mps 748 mmHg 81%
14:00 +4°C° 0 mm 6 mps 748 mmHg 78%
15:00 +5°C° 0 mm 5 mps 748 mmHg 75%
16:00 +5°C° 0.4 mm 5 mps 748 mmHg 81%
17:00 +4°C° 0.4 mm 4 mps 748 mmHg 86%
18:00 +4°C° 0.4 mm 3 mps 748 mmHg 91%
19:00 +4°C° 0.1 mm 4 mps 748 mmHg 88%
20:00 +3°C° 0.1 mm 5 mps 748 mmHg 86%
21:00 +3°C° 0.1 mm 5 mps 748 mmHg 83%
22:00 +2°C° 0 mm 5 mps 747 mmHg 84%
23:00 +2°C° 0 mm 6 mps 747 mmHg 85%

6 March, Saturday

Time Temperature Precipitation Wind Pressure Humidity
00:00 +2°C° 0 mm 6 mps 747 mmHg 85%
01:00 +2°C° 0 mm 6 mps 746 mmHg 87%
02:00 +2°C° 0 mm 6 mps 746 mmHg 88%
03:00 +2°C° 0 mm 6 mps 746 mmHg 89%
04:00 +2°C° 0.1 mm 5 mps 746 mmHg 90%
05:00 +1°C° 0.1 mm 5 mps 746 mmHg 91%
06:00 +1°C° 0.1 mm 5 mps 746 mmHg 92%
07:00 0°C° 0.1 mm 5 mps 746 mmHg 89%
08:00 -1°C° 0.1 mm 5 mps 747 mmHg 87%
09:00 -3°C° 0.1 mm 6 mps 747 mmHg 85%
10:00 -1°C° 0 mm 5 mps 748 mmHg 80%
11:00 -1°C° 0 mm 5 mps 748 mmHg 75%
12:00 0°C° 0 mm 4 mps 749 mmHg 70%
13:00 0°C° 0 mm 4 mps 749 mmHg 70%
14:00 -1°C° 0 mm 4 mps 749 mmHg 71%
15:00 -1°C° 0 mm 4 mps 749 mmHg 72%
16:00 -1°C° 0.1 mm 4 mps 749 mmHg 71%
17:00 -2°C° 0.1 mm 4 mps 749 mmHg 70%
18:00 -2°C° 0.1 mm 4 mps 749 mmHg 69%
19:00 -3°C° 0 mm 4 mps 750 mmHg 70%
20:00 -3°C° 0 mm 4 mps 750 mmHg 72%
21:00 -4°C° 0 mm 3 mps 750 mmHg 74%
22:00 -4°C° 0 mm 3 mps 751 mmHg 73%
23:00 -4°C° 0 mm 3 mps 751 mmHg 72%

7 March, Sunday

Time Temperature Precipitation Wind Pressure Humidity
00:00 -3°C° 0 mm 2 mps 751 mmHg 71%
01:00 -4°C° 0 mm 2 mps 751 mmHg 71%
02:00 -4°C° 0 mm 2 mps 751 mmHg 70%
03:00 -4°C° 0 mm 2 mps 751 mmHg 70%
04:00 -4°C° 0 mm 2 mps 752 mmHg 71%
05:00 -4°C° 0 mm 2 mps 752 mmHg 73%
06:00 -4°C° 0 mm 2 mps 752 mmHg 74%
07:00 -5°C° 0 mm 3 mps 752 mmHg 72%
08:00 -4°C° 0 mm 4 mps 753 mmHg 70%
09:00 -5°C° 0 mm 5 mps 753 mmHg 67%
10:00 -4°C° 0 mm 5 mps 753 mmHg 59%
11:00 -4°C° 0 mm 6 mps 752 mmHg 50%
12:00 -3°C° 0 mm 6 mps 752 mmHg 41%
13:00 -2°C° 0 mm 6 mps 752 mmHg 39%
14:00 -2°C° 0 mm 7 mps 751 mmHg 38%
15:00 -1°C° 0 mm 7 mps 751 mmHg 36%
16:00 -2°C° 0 mm 7 mps 750 mmHg 38%
17:00 -3°C° 0 mm 6 mps 750 mmHg 40%
18:00 -2°C° 0 mm 5 mps 750 mmHg 42%
19:00 -3°C° 0 mm 6 mps 749 mmHg 45%
20:00 -4°C° 0 mm 6 mps 749 mmHg 48%
21:00 -4°C° 0 mm 7 mps 749 mmHg 51%
22:00 -4°C° 0 mm 7 mps 748 mmHg 54%
23:00 -4°C° 0 mm 7 mps 748 mmHg 56%
Show more

We Need Your Consent

Meteoprog and our Service Providers may store and access personal data such as cookies, device identifiers or other similar technologies on your device and process such data to personalise content and ads, as well as provide social media features and to analyse the traffic.

  • Store and/or access information on your device

    Cookies, device identifiers or other information can be stored or accessed on your device for the purposes indicated above.

  • Personalised ads and content, ad and content measurement, audience insights, and products development

    Ads and content can be personalised based on a profile. More data can be added to better personalise ads and content. Ad and content performance can be measured. Insights about the audience who saw the ads and content can be derived. Such data can be used to develop or improve user’s experience, systems and software.

By clicking ‘I Agree’ you will allow the use of indicated cookies, device identifiers, web beacons or other similar technologies. Your settings can be changed in the browser on your device.

For certain purposes, legitimate interests may be relied on, rather than consent. You can read more about this in our Privacy and Cookie Policy.